This demonstration page uses our WeatherBlox Daily Observations layout. Learn more.

Left ArrowRight Arrow

40.92501, -98.34201

Hourly Observations for August 5, 2020

Temp ( °F °C ) Dew Point ( °F °C ) Humidity (%) Winds ( mph kmh ) Pressure ( in mb ) Visibility ( mi km ) Precip ( " mm )
12:53 am 00:53 Clear 63 17.2 54 12.2 73 73 S 14 22 30.02 1017 10 16 0.00 0.00
1:53 am 01:53 Mostly Cloudy 62 16.7 52 11.1 70 70 S 10 17 30.05 1018 10 16 0.00 0.00
2:53 am 02:53 Mostly Cloudy 61 16.1 52 11.1 72 72 S 12 19 30.04 1017 10 16 0.00 0.00
3:53 am 03:53 Mostly Clear 60 15.6 52 11.1 75 75 S 8 13 30.03 1017 10 16 0.00 0.00
4:53 am 04:53 Mostly Clear 59 15 53 11.7 81 81 SSE 9 15 30.03 1017 10 16 0.00 0.00
5:53 am 05:53 Mostly Cloudy 60 15.6 53 11.7 78 78 S 9 15 30.04 1017 10 16 0.00 0.00
6:53 am 06:53 Mostly Sunny 59 15 53 11.7 81 81 S 12 19 30.04 1017 10 16 0.00 0.00
7:53 am 07:53 Sunny 62 16.7 53 11.7 73 73 S 12 19 30.05 1018 10 16 0.00 0.00
8:53 am 08:53 Sunny 66 18.9 54 12.2 65 65 S 14 22 30.03 1017 10 16 0.00 0.00
9:53 am 09:53 Sunny 70 21.1 55 12.8 59 59 S 13 20 30.03 1017 10 16 0.00 0.00
10:53 am 10:53 Sunny 72 22.2 57 13.9 59 59 SSW 15 24 30.03 1017 10 16 0.00 0.00
11:53 am 11:53 Sunny 75 23.9 59 15 58 58 SSW 12 19 30.02 1017 10 16 0.00 0.00
12:53 pm 12:53 Sunny 79 26.1 62 16.7 56 56 S 14 22 30.00 1016 10 16 0.00 0.00
1:53 pm 13:53 Sunny 79 26.1 63 17.2 58 58 S 8 13 29.98 1015 10 16 0.00 0.00
2:53 pm 14:53 Mostly Sunny 82 27.8 65 18.3 56 56 S 13 20 29.96 1015 10 16 0.00 0.00
3:53 pm 15:53 Sunny 82 27.8 65 18.3 56 56 S 14 22 29.96 1015 10 16 0.00 0.00
4:53 pm 16:53 Partly Cloudy 83 28.3 65 18.3 55 55 S 10 17 29.95 1014 10 16 0.00 0.00
5:53 pm 17:53 Mostly Sunny 82 27.8 66 18.9 58 58 SSE 10 17 29.94 1014 10 16 0.00 0.00
6:53 pm 18:53 Sunny 80 26.7 66 18.9 62 62 SE 10 17 29.93 1014 10 16 0.00 0.00
7:53 pm 19:53 Sunny 77 25 65 18.3 66 66 SE 9 15 29.93 1014 10 16 0.00 0.00
8:53 pm 20:53 Clear 73 22.8 65 18.3 76 76 SE 5 7 29.94 1014 10 16 0.00 0.00
9:53 pm 21:53 Clear 72 22.2 65 18.3 79 79 SSE 6 9 29.96 1015 10 16 0.00 0.00
10:53 pm 22:53 Clear 72 22.2 65 18.3 79 79 SE 7 11 29.97 1015 10 16 0.00 0.00
11:53 pm 23:53 Clear 70 21.1 64 17.8 82 82 ESE 7 11 29.96 1014 10 16 0.00 0.00

Powered by AerisWeather